When you browse on this site, cookies collect data to enhance your experience and personalize the content and advertising you see.
Visit our Privacy Policy to learn more. By continuing to use the site, you agree to this use of cookies and data.
  • en Suisse
  • Liste des pays
  • À 7 jours
  • Température de l'eau
  • Carte météo
  • Widgets météo
  • user-avatar
    Se connecter

    Météo par heure à Ovruch

    Ce jour, 25 Février, Mardi

    Heure Température Précipitation Vent Pression Humidité
    00:00 -1°C° 0 mm 4 m/s 743 mmHg 82%
    01:00 -1°C° 0 mm 3 m/s 743 mmHg 85%
    02:00 -1°C° 0 mm 3 m/s 743 mmHg 88%
    03:00 -1°C° 0 mm 3 m/s 743 mmHg 89%
    04:00 -1°C° 0 mm 2 m/s 743 mmHg 90%
    05:00 -1°C° 0 mm 2 m/s 742 mmHg 91%
    06:00 -1°C° 0 mm 2 m/s 742 mmHg 89%
    07:00 -1°C° 0 mm 2 m/s 742 mmHg 87%
    08:00 0°C° 0 mm 3 m/s 742 mmHg 85%
    09:00 +1°C° 0 mm 3 m/s 742 mmHg 81%
    10:00 +1°C° 0 mm 4 m/s 741 mmHg 77%
    11:00 +2°C° 0 mm 5 m/s 741 mmHg 73%
    12:00 +1°C° 0 mm 5 m/s 740 mmHg 80%
    13:00 +1°C° 0 mm 5 m/s 740 mmHg 86%
    14:00 0°C° 0 mm 5 m/s 739 mmHg 93%
    15:00 +1°C° 0 mm 5 m/s 739 mmHg 93%
    16:00 +1°C° 0 mm 4 m/s 738 mmHg 92%
    17:00 +1°C° 0 mm 4 m/s 738 mmHg 92%
    18:00 +1°C° 0 mm 4 m/s 738 mmHg 92%
    19:00 +1°C° 0 mm 4 m/s 737 mmHg 91%
    20:00 +3°C° 0 mm 4 m/s 737 mmHg 90%
    21:00 +3°C° 0.4 mm 4 m/s 737 mmHg 90%
    22:00 +3°C° 0.4 mm 4 m/s 736 mmHg 90%
    23:00 +3°C° 0.4 mm 4 m/s 736 mmHg 91%

    Demain, 26 Février, Mercredi

    Heure Température Précipitation Vent Pression Humidité
    00:00 +3°C° 0.4 mm 4 m/s 735 mmHg 91%
    01:00 +3°C° 0.4 mm 4 m/s 735 mmHg 91%
    02:00 +3°C° 0.4 mm 4 m/s 735 mmHg 92%
    03:00 +3°C° 0 mm 4 m/s 734 mmHg 91%
    04:00 +3°C° 0 mm 4 m/s 733 mmHg 90%
    05:00 +4°C° 0 mm 4 m/s 732 mmHg 89%
    06:00 +4°C° 0.1 mm 4 m/s 732 mmHg 89%
    07:00 +4°C° 0.1 mm 4 m/s 732 mmHg 89%
    08:00 +3°C° 0.1 mm 5 m/s 732 mmHg 89%
    09:00 +5°C° 0 mm 4 m/s 732 mmHg 86%
    10:00 +6°C° 0 mm 4 m/s 732 mmHg 84%
    11:00 +6°C° 0 mm 4 m/s 732 mmHg 81%
    12:00 +7°C° 0.2 mm 3 m/s 732 mmHg 85%
    13:00 +7°C° 0.2 mm 2 m/s 731 mmHg 88%
    14:00 +6°C° 0.2 mm 2 m/s 731 mmHg 92%
    15:00 +6°C° 0.6 mm 2 m/s 731 mmHg 93%
    16:00 +6°C° 0.6 mm 2 m/s 730 mmHg 94%
    17:00 +6°C° 0.6 mm 2 m/s 730 mmHg 95%
    18:00 +7°C° 0.6 mm 1 m/s 730 mmHg 96%
    19:00 +7°C° 0.6 mm 1 m/s 730 mmHg 96%
    20:00 +7°C° 0.6 mm 1 m/s 730 mmHg 96%
    21:00 +7°C° 0.3 mm 1 m/s 730 mmHg 97%
    22:00 +6°C° 0.3 mm 1 m/s 730 mmHg 97%
    23:00 +6°C° 0.3 mm 1 m/s 730 mmHg 97%

    Après-demain, 27 Février, Jeudi

    Heure Température Précipitation Vent Pression Humidité
    00:00 +5°C° 0 mm 2 m/s 730 mmHg 96%
    01:00 +5°C° 0 mm 2 m/s 730 mmHg 95%
    02:00 +5°C° 0 mm 2 m/s 730 mmHg 95%
    03:00 +4°C° 0 mm 2 m/s 730 mmHg 95%
    04:00 +3°C° 0 mm 3 m/s 730 mmHg 94%
    05:00 +3°C° 0 mm 3 m/s 730 mmHg 94%
    06:00 +2°C° 0 mm 3 m/s 731 mmHg 89%
    07:00 +2°C° 0 mm 3 m/s 731 mmHg 85%
    08:00 +1°C° 0 mm 4 m/s 732 mmHg 80%
    09:00 +1°C° 0 mm 4 m/s 732 mmHg 73%
    10:00 +3°C° 0 mm 4 m/s 732 mmHg 67%
    11:00 +4°C° 0 mm 4 m/s 733 mmHg 60%
    12:00 +4°C° 0 mm 4 m/s 733 mmHg 61%
    13:00 +3°C° 0 mm 5 m/s 733 mmHg 61%
    14:00 +3°C° 0 mm 5 m/s 733 mmHg 62%
    15:00 +4°C° 0 mm 4 m/s 733 mmHg 64%
    16:00 +3°C° 0 mm 3 m/s 733 mmHg 66%
    17:00 +2°C° 0 mm 3 m/s 734 mmHg 67%
    18:00 +2°C° 0 mm 3 m/s 734 mmHg 70%
    19:00 +1°C° 0 mm 3 m/s 735 mmHg 73%
    20:00 +1°C° 0 mm 3 m/s 735 mmHg 75%
    21:00 0°C° 0 mm 3 m/s 735 mmHg 77%
    22:00 0°C° 0 mm 3 m/s 735 mmHg 78%
    23:00 -1°C° 0 mm 3 m/s 735 mmHg 80%

    28 Février, Vendredi

    Heure Température Précipitation Vent Pression Humidité
    00:00 -1°C° 0 mm 3 m/s 735 mmHg 81%
    01:00 -2°C° 0 mm 3 m/s 736 mmHg 81%
    02:00 -2°C° 0 mm 3 m/s 736 mmHg 82%
    03:00 -2°C° 0 mm 2 m/s 736 mmHg 83%
    04:00 -2°C° 0 mm 2 m/s 736 mmHg 83%
    05:00 -2°C° 0 mm 2 m/s 736 mmHg 83%
    06:00 -2°C° 0 mm 2 m/s 736 mmHg 81%
    07:00 -2°C° 0 mm 2 m/s 736 mmHg 79%
    08:00 -1°C° 0 mm 2 m/s 736 mmHg 77%
    09:00 +1°C° 0 mm 2 m/s 736 mmHg 72%
    10:00 +2°C° 0 mm 2 m/s 736 mmHg 68%
    11:00 +3°C° 0 mm 2 m/s 736 mmHg 63%
    12:00 +4°C° 0 mm 2 m/s 736 mmHg 61%
    13:00 +4°C° 0 mm 2 m/s 737 mmHg 58%
    14:00 +5°C° 0 mm 2 m/s 737 mmHg 56%
    15:00 +4°C° 0.1 mm 2 m/s 737 mmHg 61%
    16:00 +5°C° 0.1 mm 1 m/s 737 mmHg 66%
    17:00 +4°C° 0.1 mm 1 m/s 737 mmHg 71%
    18:00 +3°C° 0 mm 1 m/s 737 mmHg 76%
    19:00 +3°C° 0 mm 1 m/s 738 mmHg 82%
    20:00 +2°C° 0 mm 1 m/s 738 mmHg 88%
    21:00 +2°C° 0 mm 1 m/s 738 mmHg 89%
    22:00 +2°C° 0 mm 1 m/s 738 mmHg 90%
    23:00 +2°C° 0 mm 1 m/s 739 mmHg 91%

    29 Février, Samedi

    Heure Température Précipitation Vent Pression Humidité
    00:00 +1°C° 0 mm 1 m/s 739 mmHg 90%
    01:00 +1°C° 0 mm 1 m/s 739 mmHg 89%
    02:00 -1°C° 0 mm 2 m/s 739 mmHg 88%
    03:00 -1°C° 0 mm 2 m/s 739 mmHg 87%
    04:00 -1°C° 0 mm 2 m/s 740 mmHg 87%
    05:00 -1°C° 0 mm 3 m/s 740 mmHg 86%
    06:00 -1°C° 0 mm 3 m/s 740 mmHg 87%
    07:00 -2°C° 0 mm 4 m/s 741 mmHg 88%
    08:00 -2°C° 0 mm 4 m/s 741 mmHg 89%
    09:00 -2°C° 0 mm 4 m/s 741 mmHg 79%
    10:00 -1°C° 0 mm 4 m/s 741 mmHg 70%
    11:00 0°C° 0 mm 4 m/s 741 mmHg 61%
    12:00 0°C° 0 mm 4 m/s 741 mmHg 58%
    13:00 +1°C° 0 mm 4 m/s 741 mmHg 56%
    14:00 +3°C° 0 mm 4 m/s 741 mmHg 53%
    15:00 +1°C° 0 mm 4 m/s 741 mmHg 60%
    16:00 +2°C° 0 mm 3 m/s 741 mmHg 66%
    17:00 +1°C° 0 mm 3 m/s 741 mmHg 72%
    18:00 +1°C° 0 mm 3 m/s 742 mmHg 77%
    19:00 0°C° 0 mm 3 m/s 742 mmHg 81%
    20:00 -1°C° 0 mm 2 m/s 742 mmHg 85%
    21:00 -1°C° 0 mm 2 m/s 742 mmHg 86%
    22:00 -1°C° 0 mm 2 m/s 742 mmHg 87%
    23:00 -1°C° 0 mm 2 m/s 742 mmHg 87%

    1 Mars, Dimanche

    Heure Température Précipitation Vent Pression Humidité
    00:00 -1°C° 0 mm 2 m/s 742 mmHg 86%
    01:00 -1°C° 0 mm 2 m/s 742 mmHg 85%
    02:00 -1°C° 0 mm 2 m/s 742 mmHg 84%
    03:00 -1°C° 0 mm 2 m/s 741 mmHg 82%
    04:00 -1°C° 0 mm 3 m/s 741 mmHg 80%
    05:00 -1°C° 0 mm 3 m/s 741 mmHg 79%
    06:00 0°C° 0 mm 3 m/s 741 mmHg 76%
    07:00 0°C° 0 mm 3 m/s 740 mmHg 74%
    08:00 -1°C° 0 mm 4 m/s 740 mmHg 71%
    09:00 +1°C° 0 mm 4 m/s 740 mmHg 67%
    10:00 +2°C° 0 mm 5 m/s 740 mmHg 63%
    11:00 +3°C° 0 mm 5 m/s 740 mmHg 58%
    12:00 +3°C° 0 mm 5 m/s 740 mmHg 64%
    13:00 +4°C° 0 mm 4 m/s 739 mmHg 69%
    14:00 +4°C° 0 mm 4 m/s 739 mmHg 74%
    15:00 +3°C° 0.6 mm 3 m/s 739 mmHg 82%
    16:00 +2°C° 0.6 mm 3 m/s 739 mmHg 89%
    17:00 +2°C° 0.6 mm 3 m/s 739 mmHg 97%
    18:00 +2°C° 0.3 mm 3 m/s 739 mmHg 97%
    19:00 +3°C° 0.3 mm 2 m/s 739 mmHg 97%
    20:00 +3°C° 0.3 mm 2 m/s 739 mmHg 96%
    21:00 +2°C° 0 mm 2 m/s 740 mmHg 96%
    22:00 +2°C° 0 mm 2 m/s 740 mmHg 95%
    23:00 +2°C° 0 mm 2 m/s 740 mmHg 95%
    Voir plus